EW6157 Weather Reports


time (UTC)temp
F
wind
direction
speed
knots
gust
knots
rain 1hr
in
rain 24hr
in
rain mn
in
humidity
%
barometer
mb
20260505124608 53 25 2.6 13.9 0.00 0.00 0.00 54 1001.3
20260505123055 53 56 4.3 13.0 0.00 0.00 0.00 54 1001.1
20260505121551 53 44 2.6 7.8 0.00 0.00 0.00 54 1001.0
20260505120053 54 39 1.7 9.6 0.00 0.00 0.00 54 1000.7
20260505114556 54 32 4.3 11.3 0.00 0.00 0.00 55 1000.3
20260505113045 55 91 2.6 13.9 0.00 0.00 0.00 55 1000.3
20260505111539 55 38 5.2 13.0 0.00 0.00 0.00 56 1000.0
20260505101538 60 298 7.0 14.8 0.00 0.00 0.00 48 999.5
20260505100019 63 20 6.1 13.0 0.00 0.00 0.00 36 999.2
20260505094521 66 60 7.0 13.9 0.00 0.00 0.00 28 998.6
20260505093013 65 274 3.5 8.7 0.00 0.00 0.00 27 998.3
20260505091511 64 265 5.2 12.2 0.00 0.00 0.00 29 998.0
20260505090016 64 210 2.6 5.2 0.00 0.00 0.00 30 997.5
20260505084505 65 229 1.7 5.2 0.00 0.00 0.00 29 997.5
20260505083004 66 236 2.6 5.2 0.00 0.00 0.00 28 997.5
20260505081606 66 223 2.6 5.2 0.00 0.00 0.00 27 997.5
20260505080058 67 222 3.5 7.0 0.00 0.00 0.00 27 997.6
20260505074555 67 250 2.6 7.0 0.00 0.00 0.00 27 997.8
20260505073104 67 227 4.3 7.8 0.00 0.00 0.00 27 997.7
20260505071558 68 208 6.1 10.4 0.00 0.00 0.00 26 997.7
20260505070045 69 237 6.1 8.7 0.00 0.00 0.00 25 997.9
20260505064543 70 227 5.2 11.3 0.00 0.00 0.00 24 997.9
20260505063039 71 228 6.1 13.0 0.00 0.00 0.00 24 997.9
20260505061535 71 243 6.1 11.3 0.00 0.00 0.00 23 998.0
20260505060043 72 205 6.1 13.0 0.00 0.00 0.00 23 998.1
20260505054530 72 217 7.0 13.9 0.00 0.00 0.00 22 998.0
20260505053030 72 222 6.1 11.3 0.00 0.00 0.00 22 998.1
20260505051528 72 190 7.8 13.9 0.00 0.00 0.00 22 998.2
20260505041524 72 191 3.5 9.6 0.00 0.00 0.00 24 998.3
20260505040020 73 181 6.1 13.0 0.00 0.00 0.00 23 998.5
20260505034519 73 210 6.1 12.2 0.00 0.00 0.00 23 998.4
20260505033018 74 234 7.8 13.9 0.00 0.00 0.00 22 998.3
20260505031517 74 208 5.2 11.3 0.00 0.00 0.00 21 998.3
20260505030017 74 212 5.2 10.4 0.00 0.00 0.00 19 998.2
20260505024515 75 231 5.2 11.3 0.00 0.00 0.00 17 998.1
20260505023021 75 213 2.6 8.7 0.00 0.00 0.00 16 997.8
20260505021516 77 173 5.2 11.3 0.00 0.00 0.00 15 997.8
20260505020014 77 252 4.3 15.6 0.00 0.00 0.00 14 997.8
20260505014515 78 202 7.0 13.9 0.00 0.00 0.00 14 997.6
20260505013011 79 191 7.8 13.9 0.00 0.00 0.00 14 997.7
20260505011512 79 225 7.0 12.2 0.00 0.00 0.00 14 997.5
20260505010009 80 222 5.2 13.0 0.00 0.00 0.00 13 997.4
20260505004514 81 203 7.0 14.8 0.00 0.00 0.00 13 997.7
20260505003006 82 275 8.7 16.5 0.00 0.00 0.00 13 997.7
20260505001506 82 232 9.6 13.9 0.00 0.00 0.00 12 997.9
20260505000009 83 272 7.8 13.9 0.00 0.00 0.00 11 997.7
20260504234506 84 281 10.4 18.2 0.00 0.00 0.00 12 997.9
20260504233003 84 214 7.0 13.0 0.00 0.00 0.00 14 997.8
20260504231502 84 231 4.3 10.4 0.00 0.00 0.00 17 997.6
20260504230200 84 235 5.2 13.9 0.00 0.00 0.00 19 997.8
20260504224559 85 212 5.2 13.9 0.00 0.00 0.00 20 997.8
20260504223101 85 230 4.3 12.2 0.00 0.00 0.00 18 998.2
20260504221553 86 240 4.3 10.4 0.00 0.00 0.00 16 998.5
20260504220053 86 231 7.0 16.5 0.00 0.00 0.00 16 998.5
20260504214606 86 284 7.0 13.9 0.00 0.00 0.00 16 998.7
20260504213055 85 257 5.2 9.6 0.00 0.00 0.00 17 998.9
20260504211504 85 278 7.0 13.9 0.00 0.00 0.00 18 999.3
20260504204558 84 235 7.8 12.2 0.00 0.00 0.00 20 999.8
20260504203104 85 207 5.2 14.8 0.00 0.00 0.00 20 999.9
20260504201608 85 255 6.1 12.2 0.00 0.00 0.00 20 1000.1
20260504200051 84 231 6.1 16.5 0.00 0.00 0.00 21 1000.4
20260504194552 84 221 7.0 13.9 0.00 0.00 0.00 21 1000.6
20260504193045 83 205 8.7 16.5 0.00 0.00 0.00 22 1000.8
20260504191555 83 332 6.1 11.3 0.00 0.00 0.00 22 1001.0
20260504190046 83 229 7.0 13.0 0.00 0.00 0.00 23 1001.2
20260504184555 83 210 6.1 12.2 0.00 0.00 0.00 23 1001.5
20260504183110 83 251 7.0 15.6 0.00 0.00 0.00 22 1001.8
20260504181538 83 227 7.0 13.0 0.00 0.00 0.00 23 1002.3
20260504180032 83 259 8.7 13.0 0.00 0.00 0.00 23 1002.6
20260504174531 82 278 7.0 15.6 0.00 0.00 0.00 24 1002.8
20260504173031 82 308 7.0 13.9 0.00 0.00 0.00 24 1003.1
20260504171527 81 267 7.0 13.9 0.00 0.00 0.00 25 1003.2